Zurück zum Katalog

CHUANG XIN 20C

CX-20C

AktivKommunikationLEO
NORAD 58427·PAYLOAD·🇨🇳 China

Gestartet Nov 23, 2023 von Xichang Satellite Launch Center

Loading…

Nächste Überflüge (nächste 24 Stunden)

TLE

AktuellSource: Space-Track

Epoche: Sep 14, 2026, 20:01 UTC

1 58427U 23181C   26257.83414363 -.00000087  00000-0  73290-4 0  9996
2 58427  49.9608 358.0226 0012029 171.8676 188.2397 13.41493171137788

Verfolge CHUANG XIN 20C in Echtzeit mit AllMySat

Download on the App Store